| time (UTC) | temp F | wind direction | speed knots | gust knots | rain 1hr in | rain 24hr in | rain mn in | humidity % | barometer mb |
| 20260505200045 | 64 | 101 | 7.0 | 13.0 | 0.00 | 0.00 | 0.00 | 60 | 1016.5 |
| 20260505194545 | 65 | 105 | 7.0 | 13.9 | 0.00 | 0.00 | 0.00 | 60 | 1016.3 |
| 20260505193043 | 66 | 105 | 6.1 | 12.2 | 0.00 | 0.00 | 0.00 | 59 | 1016.1 |
| 20260505191547 | 67 | 106 | 5.2 | 10.4 | 0.00 | 0.00 | 0.00 | 59 | 1015.8 |
| 20260505190044 | 68 | 108 | 4.3 | 10.4 | 0.00 | 0.00 | 0.00 | 59 | 1015.7 |
| 20260505184550 | 69 | 108 | 3.5 | 11.3 | 0.00 | 0.00 | 0.00 | 59 | 1015.7 |
| 20260505183048 | 69 | 109 | 3.5 | 8.7 | 0.00 | 0.00 | 0.00 | 60 | 1015.7 |
| 20260505181541 | 70 | 109 | 8.7 | 13.0 | 0.00 | 0.00 | 0.00 | 60 | 1015.7 |
| 20260505180056 | 71 | 108 | 7.0 | 11.3 | 0.00 | 0.00 | 0.00 | 60 | 1015.6 |
| 20260505174549 | 70 | 111 | 7.8 | 14.8 | 0.00 | 0.00 | 0.00 | 60 | 1015.5 |
| 20260505173044 | 71 | 108 | 8.7 | 13.9 | 0.00 | 0.00 | 0.00 | 60 | 1015.5 |
| 20260505171544 | 72 | 104 | 6.1 | 13.0 | 0.00 | 0.00 | 0.00 | 61 | 1015.6 |
| 20260505170044 | 72 | 113 | 9.6 | 15.6 | 0.00 | 0.00 | 0.00 | 61 | 1015.6 |
| 20260505164545 | 73 | 103 | 7.8 | 13.9 | 0.00 | 0.00 | 0.00 | 62 | 1015.6 |
| 20260505163049 | 73 | 100 | 7.0 | 14.8 | 0.00 | 0.00 | 0.00 | 62 | 1015.6 |
| 20260505161544 | 73 | 113 | 5.2 | 10.4 | 0.00 | 0.00 | 0.00 | 63 | 1015.7 |
| 20260505153055 | 72 | 139 | 3.5 | 13.9 | 0.00 | 0.00 | 0.00 | 64 | 1016.0 |
| 20260505151545 | 72 | 151 | 4.3 | 11.3 | 0.00 | 0.00 | 0.00 | 64 | 1016.0 |
| 20260505124550 | 69 | 108 | 6.1 | 11.3 | 0.00 | 0.00 | 0.00 | 65 | 1017.6 |
| 20260505123055 | 70 | 108 | 1.7 | 6.1 | 0.00 | 0.00 | 0.00 | 65 | 1017.8 |
| 20260505121550 | 69 | 108 | 4.3 | 9.6 | 0.00 | 0.00 | 0.00 | 65 | 1017.8 |
| 20260505120048 | 68 | 116 | 3.5 | 13.0 | 0.00 | 0.00 | 0.00 | 65 | 1017.9 |
| 20260505114544 | 68 | 110 | 3.5 | 9.6 | 0.00 | 0.00 | 0.00 | 66 | 1018.3 |
| 20260505113048 | 68 | 110 | 6.1 | 11.3 | 0.00 | 0.00 | 0.00 | 66 | 1018.4 |
| 20260505111546 | 67 | 111 | 6.1 | 12.2 | 0.00 | 0.00 | 0.00 | 67 | 1018.6 |
| 20260505101551 | 65 | 118 | 4.3 | 13.9 | 0.00 | 0.00 | 0.00 | 68 | 1018.6 |
| 20260505100044 | 65 | 117 | 5.2 | 11.3 | 0.00 | 0.00 | 0.00 | 69 | 1018.6 |
| 20260505094557 | 64 | 117 | 9.6 | 13.9 | 0.00 | 0.00 | 0.00 | 69 | 1018.7 |
| 20260505093053 | 64 | 116 | 9.6 | 16.5 | 0.00 | 0.00 | 0.00 | 69 | 1018.8 |
| 20260505091542 | 63 | 120 | 9.6 | 13.9 | 0.00 | 0.00 | 0.00 | 70 | 1018.6 |
| 20260505090055 | 63 | 120 | 8.7 | 13.9 | 0.00 | 0.00 | 0.00 | 70 | 1018.5 |
| 20260505084544 | 62 | 120 | 5.2 | 13.9 | 0.00 | 0.00 | 0.00 | 70 | 1018.6 |
| 20260505083101 | 62 | 120 | 6.1 | 12.2 | 0.00 | 0.00 | 0.00 | 71 | 1018.7 |
| 20260505081544 | 61 | 120 | 6.1 | 13.0 | 0.00 | 0.00 | 0.00 | 71 | 1018.6 |
| 20260505080045 | 60 | 120 | 3.5 | 13.0 | 0.00 | 0.00 | 0.00 | 71 | 1018.6 |
| 20260505074542 | 59 | 120 | 7.8 | 12.2 | 0.00 | 0.00 | 0.00 | 71 | 1018.7 |
| 20260505073044 | 59 | 120 | 9.6 | 14.8 | 0.00 | 0.00 | 0.00 | 71 | 1018.7 |
| 20260505071545 | 58 | 119 | 5.2 | 10.4 | 0.00 | 0.00 | 0.00 | 71 | 1018.6 |
| 20260505070059 | 57 | 118 | 7.8 | 12.2 | 0.00 | 0.00 | 0.00 | 71 | 1018.5 |
| 20260505064550 | 57 | 119 | 7.8 | 13.0 | 0.00 | 0.00 | 0.00 | 70 | 1018.4 |
| 20260505063044 | 56 | 118 | 7.8 | 15.6 | 0.00 | 0.00 | 0.00 | 70 | 1018.3 |
| 20260505061610 | 56 | 117 | 7.8 | 13.9 | 0.00 | 0.00 | 0.00 | 70 | 1018.3 |
| 20260505060057 | 55 | 117 | 7.0 | 12.2 | 0.00 | 0.00 | 0.00 | 70 | 1018.3 |
| 20260505054555 | 55 | 117 | 6.1 | 13.9 | 0.00 | 0.00 | 0.00 | 69 | 1018.2 |
| 20260505053045 | 55 | 117 | 7.0 | 10.4 | 0.00 | 0.00 | 0.00 | 69 | 1018.1 |
| 20260505051544 | 55 | 117 | 6.1 | 13.0 | 0.00 | 0.00 | 0.00 | 69 | 1018.0 |
| 20260505041548 | 55 | 115 | 6.1 | 15.6 | 0.00 | 0.00 | 0.00 | 68 | 1017.9 |
| 20260505040059 | 56 | 112 | 7.8 | 13.9 | 0.00 | 0.00 | 0.00 | 68 | 1018.0 |
| 20260505034543 | 56 | 110 | 7.8 | 14.8 | 0.00 | 0.00 | 0.00 | 67 | 1017.9 |
| 20260505033049 | 56 | 109 | 7.8 | 13.9 | 0.00 | 0.00 | 0.00 | 67 | 1017.9 |
| 20260505031551 | 56 | 104 | 7.8 | 14.8 | 0.00 | 0.00 | 0.00 | 67 | 1017.9 |
| 20260505030055 | 56 | 101 | 7.8 | 13.9 | 0.00 | 0.00 | 0.00 | 67 | 1017.7 |
| 20260505024550 | 56 | 101 | 7.8 | 11.3 | 0.00 | 0.00 | 0.00 | 67 | 1017.8 |
| 20260505023044 | 57 | 100 | 8.7 | 13.9 | 0.00 | 0.00 | 0.00 | 66 | 1017.8 |
| 20260505021543 | 57 | 99 | 7.8 | 11.3 | 0.00 | 0.00 | 0.00 | 66 | 1018.0 |
| 20260505020047 | 57 | 99 | 5.2 | 13.0 | 0.00 | 0.00 | 0.00 | 66 | 1018.0 |
| 20260505014546 | 57 | 99 | 6.1 | 13.9 | 0.00 | 0.00 | 0.00 | 66 | 1018.2 |
| 20260505013051 | 57 | 97 | 7.8 | 13.9 | 0.00 | 0.00 | 0.00 | 65 | 1018.1 |
| 20260505011546 | 58 | 94 | 8.7 | 14.8 | 0.00 | 0.00 | 0.00 | 65 | 1018.2 |
| 20260505010056 | 58 | 94 | 8.7 | 15.6 | 0.00 | 0.00 | 0.00 | 65 | 1018.3 |
| 20260505004549 | 58 | 89 | 6.1 | 16.5 | 0.00 | 0.00 | 0.00 | 65 | 1018.5 |
| 20260505003044 | 59 | 101 | 7.0 | 15.6 | 0.00 | 0.00 | 0.00 | 64 | 1018.6 |
| 20260505001545 | 59 | 94 | 7.0 | 16.5 | 0.00 | 0.00 | 0.00 | 64 | 1018.7 |
| 20260505000054 | 59 | 90 | 6.1 | 13.0 | 0.00 | 0.00 | 0.00 | 64 | 1018.8 |
| 20260504234543 | 60 | 89 | 7.0 | 13.9 | 0.00 | 0.00 | 0.00 | 64 | 1018.7 |
| 20260504233045 | 60 | 89 | 7.0 | 15.6 | 0.00 | 0.00 | 0.00 | 63 | 1018.7 |
| 20260504231544 | 60 | 89 | 7.0 | 16.5 | 0.00 | 0.00 | 0.00 | 63 | 1018.7 |
| 20260504230044 | 60 | 88 | 9.6 | 19.1 | 0.00 | 0.00 | 0.00 | 63 | 1018.7 |
| 20260504224545 | 60 | 87 | 8.7 | 19.1 | 0.00 | 0.00 | 0.00 | 62 | 1018.8 |
| 20260504223047 | 61 | 84 | 8.7 | 13.9 | 0.00 | 0.00 | 0.00 | 62 | 1018.8 |
| 20260504221547 | 61 | 84 | 8.7 | 15.6 | 0.00 | 0.00 | 0.00 | 62 | 1018.7 |
| 20260504220100 | 61 | 79 | 8.7 | 14.8 | 0.00 | 0.00 | 0.00 | 62 | 1018.9 |
| 20260504214556 | 61 | 82 | 6.1 | 13.9 | 0.00 | 0.00 | 0.00 | 62 | 1018.8 |
| 20260504213107 | 61 | 82 | 5.2 | 9.6 | 0.00 | 0.00 | 0.00 | 61 | 1018.8 |
| 20260504211555 | 62 | 82 | 5.2 | 13.9 | 0.00 | 0.00 | 0.00 | 61 | 1018.6 |
| 20260504210045 | 62 | 82 | 7.8 | 16.5 | 0.00 | 0.00 | 0.00 | 61 | 1018.6 |
| 20260504204545 | 62 | 85 | 7.0 | 14.8 | 0.00 | 0.00 | 0.00 | 61 | 1018.4 |
| 20260504203047 | 63 | 86 | 4.3 | 11.3 | 0.00 | 0.00 | 0.00 | 61 | 1018.3 |
| 20260504201547 | 63 | 87 | 3.5 | 10.4 | 0.00 | 0.00 | 0.00 | 61 | 1017.8 |